Showing default

GLOBALSTAR M066, 32265

Orbit data source: Space-Track

GLOBALSTAR M066, 32265 is a payload satellite owned by Globalstar (US) in LEO that was launched on Sat, 20 Oct 2007 UTC via a SOYUZ-FG launch vehicle from the Tyuratam Missile And Space Complex (TTMTR). Payload-class satellites include a variety of spacecraft equipped with specific instruments for various scientific and technological missions. These include communications satellites like Starlink; space stations such as the ISS; scientific satellites like the Hubble; Earth observation satellites from companies like Planet Labs, Umbra, and HawkEye 360; GPS; miniature CubeSats for education and research; and military/defense satellites.

Loading next visibility...
Identifier
32265, 2007-048C
Orbit
LEO
Last TLE update
17 hours ago
Origin
Manufacturer
SS/Loral
Mission
Operational Commercial Communications
Bus & Motor
LS-400, LS-400 AOCS
Mass
450 kg wet, 380 kg dry
Launch date (UTC)
2007-10-20 (18 years ago)
Launch vehicle
SOYUZ-FG
Launch site
Tyuratam Missile And Space Complex (TTMTR)
Object type
Payload
Rocket body
Debris
Shape & HBR
Box + 2 Pan, 12 m
Radar Cross Section
5.587 m², Large (>1 m²)

Expand to show TLE details & history

TLE from 17 hours ago
0 GLOBALSTAR M066
1 32265U 07048C   25181.70339824 -.00000082  00000-0  10149-3 0  9999
2 32265  51.9621 346.8338 0003207  15.0479 359.2257 12.29931544816960
Epoch: 2025-06-30T16:52Z
TLE epoch observation values (Epoch: 2025-06-30T16:52:53.607Z)
Latitude
11.19018°
Longitude
-176.53914°
Altitude
1,546.952 km
Speed
7.096 km/s
True Right ascension
23h 42m 46s
True Declination
11° 07' 53"
Sunlit
Object was in daylight at epoch
Visualization orbit readout
Latitude
-24.51844°
Longitude
151.73274°
Altitude
1,554.822 km
Speed
7.091 km/s
Apparent Right ascension
21h 07m 06s
Apparent Declination
-72° 15' 54"
Sunlit
Object is in full shadow
Visualization observer readout
Local Sidereal Time
21:49:37
Azimuth
183.486° SSW
Elevation
-22.429°
Doppler factor
1
Orbital elements
Apogee altitude
1,552.509 km
Perigee altitude
1,547.424 km
Semi-major axis
7,928.103 km
Eccentricity
0.00032
Inclination
51.9621°
RAAN
346.8338°
Arg. of periapsis
15.0479°
True anomaly
Unknown
Mean anomaly
359.2257°
Eccentric anomaly
Unknown
Mean motion
3.0746 °/min
Orbital period
117.09 mins
BSTAR
0.00010149
Loading maneuver chart data...
Loading SW <> Apogee altitude chart data...
Loading historical data...
Loading historical data...
Loading historical data...
Loading historical data...
Loading historical data...
Loading historical data...
Loading historical data...
Other satellites on launch #48 in the year 2007 (2007-10-20 UTC)

GLOBALSTAR M066 Visibility forecast

Observer location: undefined°, undefined°

Span
Click to sort rows by Start time (UTC) header in descending order
Start Az.
Max El. time (UTC)
Max El. Az.
Max El.
End time (UTC)
End Az.
16 mins2025-07-01 12:24:13.252Z191.449° SSW2025-07-01 12:32:13.252Z128.57° SE32.867°2025-07-01 12:40:13.252Z63.893° ENE
17 mins2025-07-01 14:27:13.252Z244.493° WSW2025-07-01 14:35:13.252Z339.351° N43.47°2025-07-01 14:44:13.252Z51.748° ENE
15 mins2025-07-01 16:32:13.252Z288.676° WNW2025-07-01 16:39:13.252Z349.402° N33.198°2025-07-01 16:47:13.252Z57.741° ENE
16 mins2025-07-01 18:37:13.252Z310.61° NW2025-07-01 18:44:13.252Z14.534° NNE36.531°2025-07-01 18:53:13.252Z91.321° ESE
17 mins2025-07-01 20:40:13.252Z305.594° NW2025-07-01 20:48:13.252Z221.253° SW44.518°2025-07-01 20:57:13.252Z137.169° SSE
11 mins2025-07-01 22:45:13.252Z276.574° WNW2025-07-01 22:50:13.252Z238.666° WSW20.706°2025-07-01 22:56:13.252Z196.096° SSW
|